Weather History for Sarasota, FL

Change the Weather History Date:

Saturday, September 3, 2011

  Actual Average Record
Temperature  
Mean Temperature 82 °F 82 °F  
Max Temperature 90 °F 90 °F 96 °F (2014)
Min Temperature 74 °F 75 °F 65 °F (1984)
Cooling Degree Days 17 17  
Month to date cooling degree days 52 51  
Year to date cooling degree days 2567 2348  
Growing Degree Days 31 (Base 50)    
Moisture  
Dew Point 72 °F    
Average Humidity 76    
Maximum Humidity 88    
Minimum Humidity 59    
Precipitation  
Precipitation 0.07 in 0.35 in 2.40 in (1940)
Month to date precipitation 0.07 1.03  
Year to date precipitation 31.74 39.36  
Sea Level Pressure  
Sea Level Pressure 29.90 in    
Wind  
Wind Speed 8 mph (East)    
Max Wind Speed 15 mph    
Max Gust Speed 18 mph    
Visibility 10 miles    
Events      
T = Trace of Precipitation, MM = Missing Value Source: NWS Daily Summary

Daily Weather History Graph

Daily Weather History Graph

Search for Another Location

Airport:

Trip Planner

Search our weather history database for the weather conditions in past years. The results will help you decide how hot, cold, wet, or windy it might be!

Date:

Astronomy

Sep. 03, 2011 Rise Set
Actual Time 7:10 AM EDT 7:48 PM EDT
Civil Twilight 6:46 AM EDT 8:12 PM EDT
Nautical Twilight 6:18 AM EDT 8:40 PM EDT
Astronomical Twilight 5:50 AM EDT 9:08 PM EDT
Moon 1:07 PM EDT (9/3) 11:55 PM EDT (9/3)
Length of Visible Light 13h 25m
Length of Day
12h 38m
Waxing Crescent, 38% of the Moon is Illuminated
Sep 3
Waxing Crescent
Sep 4
First Quarter
Sep 12
Full
Sep 20
Last Quarter
Sep 27
New

Hourly Weather History & Observations

Time (EDT) Temp. Heat Index Dew Point Humidity Pressure Visibility Wind Dir Wind Speed Gust Speed Precip Events Conditions
12:53 AM 78.1 °F - 70.0 °F 76% 29.95 in 10.0 mi East 9.2 mph - N/A   Partly Cloudy
1:53 AM 77.0 °F - 69.8 °F 78% 29.93 in 10.0 mi East 11.5 mph - N/A   Clear
2:53 AM 75.9 °F - 69.1 °F 79% 29.91 in 10.0 mi ESE 8.1 mph - N/A   Clear
4:53 AM 75.0 °F - 69.1 °F 82% 29.88 in 10.0 mi East 8.1 mph - N/A   Clear
5:53 AM 73.9 °F - 69.1 °F 85% 29.88 in 10.0 mi East 6.9 mph - N/A   Clear
6:53 AM 73.9 °F - 70.0 °F 87% 29.89 in 10.0 mi East 5.8 mph - N/A   Clear
7:53 AM 75.0 °F - 69.1 °F 82% 29.89 in 10.0 mi East 10.4 mph - N/A   Clear
8:53 AM 78.1 °F - 69.1 °F 74% 29.92 in 10.0 mi East 8.1 mph - N/A   Clear
9:53 AM 82.0 °F 86.3 °F 71.1 °F 69% 29.92 in 10.0 mi East 12.7 mph - N/A   Clear
10:53 AM 84.0 °F 89.0 °F 71.1 °F 65% 29.92 in 10.0 mi ESE 9.2 mph - N/A   Clear
11:53 AM 87.8 °F 95.6 °F 73.4 °F 62% 29.93 in 10.0 mi SE 10.4 mph - N/A   Clear
12:53 PM 88.0 °F 95.6 °F 73.0 °F 61% 29.93 in 10.0 mi ESE 10.4 mph - N/A   Scattered Clouds
1:53 PM 88.0 °F 95.6 °F 73.0 °F 61% 29.91 in 10.0 mi East 10.4 mph - N/A   Mostly Cloudy
2:53 PM 89.1 °F 97.0 °F 73.0 °F 59% 29.88 in 10.0 mi ESE 4.6 mph - N/A   Mostly Cloudy
3:53 PM 87.1 °F 97.3 °F 75.9 °F 69% 29.87 in 10.0 mi Variable 5.8 mph - 0.07 in   Scattered Clouds
4:53 PM 88.0 °F 98.5 °F 75.9 °F 67% 29.86 in 10.0 mi SW 8.1 mph - N/A   Clear
5:44 PM 82.4 °F 88.2 °F 73.4 °F 74% 29.89 in 10.0 mi East 10.4 mph - N/A   Overcast
5:53 PM 80.6 °F 85.4 °F 73.4 °F 79% 29.89 in 10.0 mi East 10.4 mph - N/A   Overcast
6:12 PM 80.6 °F 85.4 °F 73.4 °F 79% 29.89 in 10.0 mi ENE 8.1 mph - N/A   Scattered Clouds
6:53 PM 80.1 °F 84.5 °F 73.9 °F 81% 29.89 in 10.0 mi East 10.4 mph - N/A   Clear
7:53 PM 78.1 °F - 73.9 °F 87% 29.88 in 10.0 mi East 6.9 mph - N/A   Clear
8:53 PM 77.0 °F - 73.9 °F 90% 29.88 in 10.0 mi ESE 6.9 mph - N/A   Clear
9:53 PM 77.0 °F - 73.0 °F 88% 29.88 in 10.0 mi ESE 5.8 mph - N/A   Clear
10:53 PM 77.0 °F - 73.0 °F 88% 29.89 in 10.0 mi East 4.6 mph - N/A   Clear
11:53 PM 77.0 °F - 73.0 °F 88% 29.91 in 10.0 mi ESE 4.6 mph - N/A   Clear